GFSNGP_925_rhum_171.txt.gz
RH
36 32 34 38 34 36 44 34 25 16 17 13 15 18 16 15 21 26 26 26 26 28 28 30 32 34 36 38 40 40 44 45 46 49 51 51 52 54 54 56 57 56 55 54
37 34 38 42 33 31 31 33 30 26 27 20 22 22 21 21 23 24 26 27 27 28 32 33 33 36 37 38 38 41 43 44 46 50 51 51 54 56 57 56 56 57 58 59
46 41 41 40 31 30 32 28 29 33 24 24 26 29 28 31 30 29 28 27 28 31 33 35 36 39 39 38 39 42 46 49 49 51 52 53 56 57 57 56 56 58 60 60
58 54 64 36 34 35 32 32 30 32 31 30 31 33 33 30 31 31 33 33 34 35 37 39 41 40 38 40 42 44 49 50 51 53 54 56 57 58 57 57 58 58 59 60
58 47 35 29 42 40 39 32 31 33 32 34 36 36 37 36 34 36 36 36 38 40 41 42 42 40 42 43 42 45 47 50 52 55 57 57 57 56 57 59 60 61 60 61
54 66 54 37 33 30 34 43 38 38 39 39 38 40 42 39 37 37 38 41 43 43 44 44 40 42 45 46 46 49 50 56 57 59 60 60 59 60 62 66 64 63 63 61
60 61 46 34 35 35 53 47 36 37 41 42 45 43 41 38 38 38 41 44 45 46 44 44 46 48 49 48 48 48 50 52 52 55 62 62 61 67 72 72 70 67 65 64
54 61 68 40 42 45 44 40 41 43 44 46 44 44 44 44 46 45 43 46 48 50 48 46 44 45 44 41 40 41 44 46 47 44 46 57 65 75 80 77 70 67 64 62
42 42 42 39 40 38 41 44 44 45 43 44 46 51 50 51 51 50 48 46 48 47 45 43 42 41 42 41 40 41 42 42 41 40 40 43 55 69 79 74 68 66 65 62
46 34 34 35 36 36 46 52 49 46 47 51 57 60 67 71 72 59 55 51 50 49 46 45 43 41 41 42 44 45 44 41 40 42 43 45 46 52 67 75 72 68 69 69
46 38 34 33 34 49 53 49 49 49 51 56 62 63 64 64 61 60 61 58 60 58 53 48 44 42 42 43 48 48 46 43 40 39 41 43 44 49 55 61 67 74 78 81
54 38 44 49 46 49 55 55 56 59 59 57 65 65 63 60 59 58 56 54 54 55 52 46 42 39 39 40 45 44 44 44 42 43 45 46 47 48 50 55 61 64 67 78
54 53 52 48 47 63 67 64 63 65 60 58 56 54 54 57 56 56 55 54 49 46 45 47 47 43 41 41 44 47 47 46 47 47 47 50 51 54 58 56 57 58 60 66
50 56 49 56 59 60 61 58 51 46 41 38 38 41 40 40 41 41 41 41 41 46 46 44 44 44 42 40 43 46 49 48 50 51 54 59 58 58 61 62 62 61 62 67
57 59 55 52 57 58 50 42 42 34 28 28 27 27 28 29 30 32 34 35 36 41 44 41 38 39 40 43 46 49 51 52 53 53 55 58 62 69 72 72 70 69 69 72
57 57 57 60 52 42 38 35 36 32 28 27 26 26 28 31 33 35 36 38 39 41 42 42 41 42 43 46 51 54 55 54 55 58 63 65 66 68 70 71 72 72 72 72
65 60 53 50 45 37 34 33 31 32 32 30 28 29 32 34 36 38 37 36 37 37 41 46 49 49 51 54 56 56 58 60 60 62 66 67 69 70 71 73 76 78 78 76
51 35 38 42 46 41 36 33 34 35 36 36 32 34 40 41 41 39 39 40 42 42 43 45 47 48 52 54 57 62 67 70 71 72 73 75 76 76 78 81 81 82 80 82
53 52 51 52 50 49 50 50 51 51 50 50 44 40 42 46 44 43 44 46 45 45 43 41 42 48 54 58 61 69 74 74 73 73 74 75 78 81 83 84 83 83 83 82
57 57 59 59 60 60 56 51 48 50 49 47 45 46 47 45 43 44 46 46 46 45 45 49 54 59 62 63 66 71 75 76 76 78 80 81 82 82 84 89 94 98 96 95
54 56 57 59 52 43 44 45 45 45 44 44 47 48 47 45 47 50 52 52 49 48 50 56 60 64 66 69 73 75 76 77 80 81 85 91 93 94 92 93 93 96 98 98
36 37 39 39 37 39 42 43 45 47 48 50 52 53 51 52 53 54 55 58 57 59 64 68 70 70 71 74 79 82 85 83 81 83 82 87 89 89 91 91 93 97 99 99
35 38 40 42 42 43 44 46 47 48 50 51 52 52 53 53 54 56 58 51 56 60 63 67 69 73 79 82 85 87 85 83 83 83 84 86 87 90 93 93 95 99 99 99
40 42 45 47 50 52 54 51 50 50 50 50 52 54 56 57 56 54 56 59 63 68 72 74 76 79 82 86 88 90 90 90 86 86 89 91 90 91 95 96 99 99 99 99
47 51 54 57 59 58 56 56 57 58 57 58 57 56 58 62 64 62 64 65 66 68 72 74 76 80 84 88 88 89 88 88 89 92 91 92 91 92 96 96 99 100 99 99
58 56 54 53 54 54 53 54 55 54 54 53 54 56 58 59 60 63 66 69 73 75 77 79 81 83 85 87 89 91 92 94 96 92 94 91 92 93 97 99 99 99 99 98
57 55 55 54 53 52 53 55 57 59 60 61 61 62 63 64 66 69 71 73 74 76 78 79 81 84 88 94 96 95 96 97 97 96 96 97 96 98 97 98 97 98 98 97

GFSNGP_925_rhum_174.txt.gz
RH
49 39 33 40 41 42 52 49 49 31 34 27 30 32 31 25 25 28 32 30 31 32 32 32 33 34 36 38 40 39 40 42 44 46 48 50 50 52 54 54 55 56 57 57
48 38 39 49 45 41 39 41 40 38 37 26 26 31 32 33 35 34 33 31 31 32 31 34 34 37 38 38 38 38 41 43 46 48 50 51 52 53 55 55 56 56 55 58
66 46 51 51 41 44 39 31 33 43 34 35 38 38 40 41 38 38 37 36 34 33 36 37 38 39 40 38 38 40 43 46 49 50 51 53 54 55 56 57 57 56 56 58
84 59 74 40 36 39 41 38 32 35 35 40 41 41 40 40 38 39 40 40 42 40 38 40 41 42 40 40 42 42 43 47 49 51 53 54 56 56 56 56 57 58 58 60
80 67 52 36 43 41 42 47 42 40 42 40 41 41 48 42 45 45 44 42 41 41 42 42 43 42 41 42 44 44 45 48 51 55 57 58 59 59 58 60 61 63 64 63
65 76 75 43 36 33 36 59 45 46 48 49 50 65 63 42 40 42 40 41 43 44 45 45 43 43 44 47 48 49 49 52 53 51 51 55 59 61 60 64 70 71 70 67
82 84 63 42 39 36 58 61 42 43 47 51 58 58 51 46 46 48 48 46 45 46 49 48 46 46 48 49 48 45 43 44 47 48 49 46 51 57 58 68 78 77 73 68
69 73 79 42 44 52 56 44 46 50 53 57 55 53 52 57 60 65 64 58 51 51 51 50 46 43 44 44 43 42 40 41 42 43 42 41 41 44 55 67 80 79 73 68
55 61 49 41 43 45 48 52 55 58 56 56 62 63 66 77 75 71 67 67 64 52 51 48 46 44 42 42 42 43 44 44 43 42 41 42 43 44 46 55 73 77 74 69
55 43 43 39 41 45 55 57 56 55 58 60 68 70 72 73 75 73 65 63 62 60 59 56 53 53 53 46 43 45 47 48 46 44 41 40 42 43 45 49 57 70 75 75
59 50 46 40 54 61 59 54 56 56 57 61 66 72 69 64 69 64 62 60 58 60 62 62 58 51 44 39 40 42 47 46 44 42 40 40 41 42 44 44 49 56 62 68
62 49 52 57 54 62 64 63 65 68 70 66 64 66 60 64 60 59 56 55 58 60 63 59 51 46 46 44 41 41 44 43 42 44 43 44 46 47 45 48 47 48 51 56
60 56 56 51 55 66 70 67 63 64 60 55 52 50 48 50 43 43 41 41 43 44 42 44 47 46 44 44 42 42 42 45 47 47 48 48 49 52 59 50 56 54 53 54
51 56 58 55 63 60 58 60 53 47 45 41 35 32 32 34 32 31 32 32 32 34 36 38 44 47 43 43 45 42 42 44 49 51 53 52 56 61 64 70 70 66 62 66
59 61 61 55 57 59 57 52 49 51 41 33 28 29 28 29 31 29 30 33 35 36 38 39 42 42 37 37 40 42 43 48 52 54 55 56 60 63 67 73 78 80 78 74
58 61 61 65 65 57 49 46 47 46 42 36 33 31 29 29 31 33 34 37 40 42 40 40 42 40 43 46 47 48 52 55 60 62 60 60 62 68 73 76 77 78 80 80
65 72 65 62 60 54 49 42 41 42 38 38 37 35 34 34 35 40 42 42 42 42 41 41 43 42 43 46 50 53 56 57 61 63 63 64 70 75 77 78 81 82 82 82
62 49 41 45 51 60 59 50 47 46 47 46 47 49 51 51 47 43 44 46 46 45 45 45 46 45 44 45 50 53 56 61 67 72 74 77 80 81 82 85 88 90 91 91
54 60 58 55 55 58 58 58 58 56 54 53 51 51 50 49 46 45 47 48 47 48 47 47 45 45 46 47 54 58 62 70 76 79 80 81 80 80 83 85 84 84 86 87
58 55 57 61 60 63 67 64 60 50 46 47 47 50 51 48 47 47 48 48 47 48 49 51 50 51 54 57 61 65 67 71 76 82 84 85 87 87 84 86 90 95 94 91
63 59 58 60 61 56 57 48 42 45 46 45 48 49 50 50 51 53 55 56 52 52 51 52 56 59 62 64 66 70 75 78 79 83 85 82 83 85 86 83 85 87 89 91
36 37 39 40 41 41 41 43 44 46 46 47 48 50 53 55 56 57 56 58 54 54 59 61 60 62 66 72 76 76 80 85 88 82 80 80 80 83 89 92 98 98 94 94
38 41 43 45 45 45 46 48 50 51 52 52 53 54 56 56 56 58 60 51 54 56 57 60 63 67 76 78 82 84 87 90 93 88 80 85 90 96 99 99 98 99 94 97
46 47 49 50 52 57 60 56 56 56 56 56 57 58 58 58 57 58 58 57 59 62 64 68 72 74 76 80 83 85 88 94 96 97 100 99 99 98 97 98 97 98 100 98
52 56 60 64 65 62 58 57 58 58 57 58 57 56 55 58 68 64 64 63 64 68 72 72 78 80 82 83 84 87 92 91 90 95 99 99 98 97 97 98 98 96 98 99
65 63 61 60 60 60 61 61 63 62 62 62 64 65 64 64 64 65 66 67 68 71 76 76 77 80 83 86 89 93 97 98 98 98 98 98 97 98 98 98 98 99 98 97
59 58 58 58 57 58 59 61 64 66 67 72 81 81 80 84 82 76 76 78 79 80 81 83 84 84 87 94 97 97 98 98 98 98 98 98 98 97 97 96 94 93 92 91

GFSNGP_925_rhum_180.txt.gz
RH
46 46 41 38 39 46 48 39 36 33 38 36 35 39 41 43 44 43 42 42 42 42 40 37 39 43 44 43 43 41 40 39 38 39 42 45 48 49 49 50 51 51 53 51
48 45 47 48 49 48 48 48 47 46 45 38 43 47 51 50 46 48 50 51 51 52 49 47 44 43 43 42 40 39 39 39 40 42 44 46 49 51 52 51 52 53 52 54
45 57 61 48 42 52 48 43 38 46 43 42 49 50 49 49 52 55 54 53 53 54 51 47 44 43 43 42 42 42 41 42 42 44 47 49 52 54 50 49 50 53 53 56
77 60 42 36 42 43 52 52 49 52 52 50 51 53 56 53 56 53 51 52 53 50 47 46 46 46 46 45 44 44 45 46 46 49 52 54 56 49 45 46 50 53 50 51
70 73 48 52 42 48 44 54 50 56 54 52 55 55 56 46 46 50 56 57 58 59 56 52 51 51 48 47 49 49 47 46 46 51 56 51 46 45 45 46 46 51 50 54
77 64 53 40 37 37 38 57 49 55 56 56 56 66 70 53 54 70 72 73 71 67 64 62 58 57 55 52 50 48 48 47 45 43 45 45 44 44 44 44 44 46 45 50
84 87 75 53 38 39 55 50 48 56 58 59 67 66 61 64 77 78 77 72 66 64 60 58 57 56 52 50 48 50 48 46 45 45 45 44 45 44 43 43 44 44 45 42
87 87 81 46 45 50 50 54 57 63 61 61 61 61 68 81 82 77 73 66 62 63 63 61 61 61 62 62 58 55 51 52 52 49 42 40 42 42 41 40 43 42 40 38
68 68 53 50 45 46 55 59 63 65 62 61 62 67 72 77 77 74 69 67 63 62 59 49 48 52 58 52 50 48 48 46 44 41 39 39 42 38 38 36 43 43 44 46
52 49 54 45 56 55 58 66 64 62 62 61 63 68 73 77 74 72 65 64 57 50 48 40 27 30 30 30 32 39 42 41 38 42 45 44 41 40 39 38 42 47 49 55
66 59 57 68 64 67 64 64 64 62 62 62 67 72 71 72 68 62 56 50 45 38 33 29 27 29 30 32 33 35 41 44 48 48 47 47 45 45 45 42 49 54 58 64
73 58 57 58 68 65 68 67 68 66 68 70 70 72 65 66 55 52 48 38 40 32 30 29 28 30 32 34 36 39 47 52 52 53 52 52 52 49 43 54 53 52 54 63
66 55 61 59 68 66 68 73 71 72 72 66 54 56 54 54 43 38 44 42 39 33 28 29 30 32 33 35 38 43 46 47 53 56 56 57 59 59 66 49 56 52 57 63
57 58 64 62 70 67 70 68 64 63 55 51 47 44 42 42 36 35 35 30 32 32 34 36 36 38 35 38 43 46 47 50 56 59 57 57 60 63 67 74 75 71 58 72
62 66 62 56 60 67 66 66 60 56 50 48 43 41 38 40 40 36 34 35 37 40 42 43 45 45 43 44 46 49 52 56 57 58 60 64 68 71 74 79 82 82 77 62
60 70 69 68 68 67 68 57 54 54 50 47 45 42 38 38 40 39 38 42 48 49 49 50 52 49 46 49 51 53 54 56 64 67 69 73 74 77 80 81 81 82 84 81
66 72 72 74 75 69 63 57 55 54 52 53 49 45 46 49 51 51 52 52 54 55 55 56 55 48 48 50 53 53 55 56 62 66 70 71 73 79 81 82 86 87 86 85
66 58 61 61 60 56 60 61 61 59 61 48 49 55 61 62 62 61 59 59 58 53 55 54 52 50 49 49 52 57 61 64 68 72 74 77 79 81 85 88 92 94 94 95
63 65 63 62 61 62 63 59 53 49 52 57 64 70 67 66 60 57 57 58 57 58 54 52 51 53 56 53 54 62 69 72 75 79 81 85 84 84 88 92 94 90 93 96
60 55 54 52 44 45 49 46 47 53 57 62 64 70 59 54 54 55 55 57 56 56 55 56 56 58 58 57 58 68 73 76 82 84 85 89 92 95 97 86 78 91 99 99
42 42 44 46 46 45 48 47 49 54 51 52 55 57 57 57 58 59 62 62 58 58 59 63 66 66 65 64 67 75 80 85 91 92 92 94 96 96 96 94 89 90 96 97
44 47 48 47 49 52 50 52 54 58 60 62 62 63 65 65 65 66 65 65 63 65 68 71 69 67 71 78 82 85 90 92 96 98 99 99 97 93 95 98 98 97 97 100
49 49 49 50 51 50 55 61 64 66 68 68 69 69 70 69 70 73 74 69 69 71 75 78 80 81 81 82 92 92 90 92 97 99 99 100 100 100 100 99 99 100 99 100
51 51 52 51 55 66 74 68 70 72 72 72 73 71 73 75 75 74 75 77 77 79 82 82 82 85 86 98 98 97 94 95 96 96 98 99 99 100 99 99 98 97 99 99
56 57 59 63 68 69 70 72 73 73 73 74 76 78 75 76 83 84 86 87 88 89 93 97 93 91 98 98 98 98 97 97 98 99 98 99 98 99 98 97 99 99 99 99
61 65 65 64 68 72 74 77 80 81 87 85 79 82 85 94 95 87 91 92 98 95 93 96 100 99 98 98 99 98 98 98 99 97 98 97 98 98 99 99 99 96 90 91
60 62 68 74 73 76 80 80 78 87 88 95 93 93 86 78 78 78 81 83 89 96 96 96 98 98 98 98 98 98 98 98 98 99 97 98 98 99 100 100 99 98 100 100

GFSNGP_925_rhum_183.txt.gz
RH
48 46 43 40 37 45 50 40 38 31 43 38 41 45 48 46 45 48 51 52 54 55 52 47 46 45 46 46 45 43 41 41 41 41 42 44 45 47 50 51 50 50 49 48
46 47 59 51 48 50 50 49 46 44 45 38 47 51 54 51 54 58 60 59 59 58 53 50 48 46 45 44 43 42 43 44 45 44 44 46 49 52 54 54 48 46 46 51
44 59 52 46 47 51 49 45 45 52 42 50 52 52 52 55 60 60 58 57 58 59 54 50 48 47 46 46 46 46 47 48 47 46 47 50 56 57 52 45 45 44 45 52
77 51 48 35 45 44 45 49 48 50 50 49 54 56 57 56 60 60 58 60 64 64 60 56 56 54 53 51 50 51 50 46 44 44 44 46 48 45 43 43 44 47 46 48
64 66 42 53 47 51 45 46 50 59 58 58 62 58 55 50 54 65 70 74 74 70 68 65 59 56 55 54 52 50 48 48 48 47 45 44 44 44 43 43 42 42 43 42
78 54 46 38 39 39 39 56 57 57 60 66 64 66 68 58 74 82 80 76 71 66 61 59 60 59 58 58 56 55 58 56 54 52 49 48 46 44 43 42 44 44 42 41
80 81 66 50 39 40 52 43 56 59 61 66 65 62 67 79 84 78 71 68 64 64 64 63 61 58 57 57 54 54 53 51 50 47 45 43 42 45 44 44 44 39 41 39
87 82 73 47 46 52 51 53 58 61 62 65 67 72 79 82 82 76 73 69 66 62 55 50 46 47 45 39 33 31 31 33 35 35 36 35 40 43 42 41 40 36 36 32
62 64 54 50 49 49 55 56 61 65 64 66 69 69 74 79 74 72 68 65 62 57 47 29 24 26 32 25 28 31 33 34 34 34 34 34 36 41 49 46 47 46 47 46
56 56 54 51 56 54 54 55 65 66 70 69 67 69 71 77 74 72 64 58 53 49 38 25 22 24 26 28 30 34 35 37 39 41 40 40 42 45 49 50 50 50 51 53
63 58 63 63 61 58 61 65 64 64 65 64 65 71 76 77 73 64 56 45 39 41 41 33 25 25 26 27 29 33 36 38 42 45 48 48 47 49 52 45 54 56 58 63
78 61 58 57 58 66 69 69 69 69 68 69 72 77 68 72 61 51 41 31 35 35 36 33 32 32 34 35 37 36 40 44 47 54 53 55 58 55 46 57 60 56 56 67
65 59 60 58 62 68 71 70 68 71 71 74 68 65 62 64 50 43 49 45 45 40 36 36 37 40 39 39 41 43 46 47 49 56 58 63 65 68 74 52 59 60 69 72
57 59 62 65 64 67 69 68 69 69 69 66 55 48 48 49 42 42 39 33 35 38 36 38 42 44 40 42 46 48 48 50 59 61 61 63 66 69 73 77 77 72 58 76
56 64 66 60 65 70 72 71 68 67 56 50 45 44 43 44 44 40 37 38 40 41 42 44 47 47 46 46 51 52 54 57 59 59 61 67 72 77 80 82 83 85 78 66
62 63 68 69 67 67 68 66 62 57 51 48 49 48 45 46 46 46 48 48 52 50 52 56 57 55 50 53 57 59 59 58 67 68 69 71 74 79 85 85 87 88 88 83
58 59 69 72 74 70 69 62 57 57 58 62 54 45 48 53 58 58 53 51 54 57 58 61 61 54 52 55 57 60 62 61 62 69 72 72 76 80 80 84 90 90 88 88
67 62 65 62 61 61 63 60 60 57 59 48 49 51 58 65 68 65 63 62 64 61 60 59 57 54 53 55 58 64 69 70 71 75 75 79 82 84 87 90 93 95 94 93
63 66 61 59 61 61 59 56 50 47 48 48 54 65 65 68 71 70 65 62 63 65 60 57 57 58 62 62 67 71 75 76 80 82 84 86 87 89 92 93 96 97 96 88
46 46 43 43 41 41 45 42 46 51 53 56 57 65 67 62 60 60 62 65 63 63 61 61 61 66 69 69 69 75 77 80 85 88 91 94 98 98 99 95 92 92 98 96
41 44 46 46 47 44 43 44 49 55 56 60 63 67 67 66 67 68 71 70 66 67 68 70 72 73 75 78 81 82 84 88 92 95 98 99 100 100 97 83 87 91 95 94
44 47 48 48 48 48 44 51 56 62 66 69 71 72 74 74 73 73 73 74 73 75 77 79 80 82 85 85 90 98 98 97 98 100 100 100 99 98 95 94 96 98 98 100
50 52 53 55 56 56 58 58 61 68 73 76 78 78 78 77 78 82 83 76 79 84 83 86 87 87 83 88 98 99 98 98 98 98 98 98 99 98 97 97 98 99 100 100
58 56 58 59 62 67 72 67 70 74 76 78 79 78 81 84 81 78 79 88 87 81 83 85 96 87 85 98 98 98 97 97 99 98 98 99 98 98 99 99 100 100 98 96
63 65 67 67 72 70 72 75 78 79 79 81 88 87 82 83 88 97 93 81 82 82 85 88 89 84 87 95 99 99 98 99 98 98 97 98 98 98 98 98 97 96 98 99
72 70 69 69 73 76 78 83 85 86 92 85 83 88 82 88 85 80 83 84 86 86 89 93 95 94 97 98 98 99 100 98 98 97 98 97 97 98 99 100 100 100 100 100
68 74 75 79 80 83 85 84 84 92 89 93 87 85 91 87 84 84 87 92 96 97 97 98 98 98 98 98 99 97 98 98 98 98 98 98 99 100 100 100 100 100 99 99

GFSNGP_925_rhum_186.txt.gz
RH
52 46 46 41 37 48 49 36 36 28 45 41 46 53 53 52 56 60 61 62 62 63 60 53 49 47 46 45 44 43 42 44 45 46 46 46 47 50 52 55 54 47 44 42
44 52 59 56 46 48 49 48 44 47 38 38 56 56 57 58 62 65 64 62 61 61 59 57 53 51 49 48 47 47 46 48 49 46 45 45 45 49 52 47 42 42 41 43
43 60 54 42 44 51 51 48 50 49 42 55 56 57 58 63 64 65 63 62 65 66 62 58 57 57 56 54 52 52 53 50 49 49 48 48 47 46 45 44 44 43 42 42
76 49 48 35 48 44 42 45 46 49 56 52 56 57 57 62 67 65 65 70 75 75 70 68 62 58 57 56 54 52 52 52 52 51 50 48 47 48 47 45 42 41 42 43
66 62 42 44 50 52 47 44 52 58 62 63 69 62 59 59 60 69 75 78 78 73 66 61 59 59 58 57 58 57 56 53 53 51 50 49 48 46 43 43 42 39 39 41
82 58 48 36 41 41 38 54 59 60 67 71 67 75 71 69 81 85 80 76 71 66 65 63 62 57 51 49 45 45 49 46 40 36 36 41 42 39 37 43 44 41 38 34
79 79 60 47 41 42 47 42 61 60 66 72 67 60 64 87 86 79 72 68 66 65 64 61 49 38 31 30 25 26 26 28 29 29 31 31 33 33 34 35 39 46 45 41
86 80 63 50 47 53 51 55 59 60 64 67 66 84 87 87 85 76 70 69 66 59 46 36 29 25 26 27 24 27 30 32 32 32 33 33 35 34 35 40 46 48 51 46
63 63 54 53 48 50 53 55 58 60 62 67 76 80 85 81 81 79 72 66 64 56 42 28 24 27 29 24 26 29 32 33 32 33 35 37 38 39 39 40 50 53 54 56
59 55 55 54 57 53 53 50 58 61 68 72 73 77 77 78 82 79 70 64 54 53 43 28 22 25 27 28 30 32 36 37 36 36 37 40 40 42 49 52 58 62 61 60
61 59 58 59 59 57 60 64 65 67 70 70 67 68 71 82 80 72 63 52 43 40 37 30 26 28 31 32 33 38 40 40 42 43 44 46 47 50 55 55 66 72 73 75
87 60 56 57 54 57 61 64 68 70 67 66 67 71 73 79 70 63 50 40 36 33 37 34 35 36 32 32 39 43 44 46 48 53 53 53 57 54 44 64 65 73 73 76
61 58 57 53 56 61 68 67 66 70 67 70 71 73 71 70 61 52 52 45 42 40 37 37 38 37 37 41 46 48 50 50 53 57 58 62 65 69 74 48 54 54 70 75
58 60 64 64 68 66 67 67 69 72 73 73 66 57 56 53 46 43 39 33 35 40 43 44 45 45 42 45 52 54 54 56 65 66 66 67 67 67 71 75 78 76 58 76
65 66 67 64 69 76 75 73 71 73 61 54 49 48 47 48 47 42 38 41 46 50 49 47 49 48 43 47 56 58 62 65 65 66 67 70 72 75 78 82 87 87 84 76
54 62 72 73 73 70 70 71 68 61 54 51 54 52 48 49 50 49 47 44 54 56 52 53 58 52 50 54 59 62 64 64 72 75 76 77 77 81 84 87 88 90 90 88
49 67 71 76 72 74 71 64 60 62 63 63 55 49 49 51 55 57 51 53 57 62 62 64 62 54 56 57 58 60 66 69 72 73 77 76 75 80 82 84 88 90 91 89
67 68 63 61 64 66 63 57 54 51 52 48 48 52 58 64 67 65 64 64 67 68 65 60 60 59 60 61 64 68 74 77 80 83 82 83 84 86 88 91 93 96 96 95
65 66 62 61 58 54 52 48 47 47 47 49 54 59 61 67 69 70 68 69 71 71 65 63 64 67 69 70 76 79 83 86 86 87 87 87 88 90 93 96 98 99 93 93
50 45 42 43 40 40 41 41 46 50 50 57 61 66 70 70 68 70 71 74 72 72 70 70 73 79 80 79 83 84 87 89 90 91 92 95 98 100 99 98 98 98 93 91
42 43 44 46 45 42 44 47 53 56 56 62 69 73 75 74 76 78 81 79 74 75 77 78 81 84 87 89 90 94 98 97 94 97 98 98 98 98 98 96 95 95 95 94
45 48 50 53 56 55 51 55 58 58 64 68 73 77 80 82 81 81 80 81 79 80 83 94 93 88 82 82 97 96 97 99 98 99 99 99 98 98 98 98 98 98 97 98
52 55 56 58 61 62 62 57 60 67 73 77 82 83 85 84 86 91 89 78 87 97 85 81 80 76 78 90 98 98 97 96 97 98 97 99 99 98 98 98 98 98 98 98
60 61 63 65 66 65 73 68 73 77 79 80 82 85 88 92 93 83 83 90 82 81 82 85 82 79 76 85 89 92 95 98 99 99 99 99 98 98 98 98 98 96 98 96
69 70 69 67 75 77 77 80 86 86 87 89 86 81 90 84 85 88 88 85 87 87 90 88 90 91 96 98 98 99 98 100 98 99 98 98 98 97 98 98 98 98 99 100
68 70 75 76 79 80 83 86 92 88 85 85 85 84 84 88 90 90 89 88 90 91 96 98 100 98 100 100 99 99 99 100 98 97 98 98 97 97 96 98 100 100 100 100
75 78 84 81 80 83 87 89 92 90 89 91 89 89 90 90 90 87 90 95 99 100 100 100 100 100 98 99 98 98 98 98 99 98 96 96 95 95 96 98 97 96 96 97

GFSNGP_925_rhum_189.txt.gz
RH
53 46 46 43 37 51 54 38 36 28 46 43 55 58 57 60 62 61 61 61 61 62 62 57 53 51 49 48 46 47 47 49 51 48 48 47 47 48 48 48 46 45 44 43
49 53 54 55 49 47 48 46 45 44 41 39 49 57 57 61 61 63 65 65 65 65 64 63 60 58 56 54 52 51 52 52 50 50 50 49 47 47 47 46 46 45 43 41
44 56 56 52 61 56 52 51 48 48 40 60 61 58 63 67 64 65 66 67 69 71 69 67 64 61 59 57 55 53 51 53 55 54 53 52 51 50 49 46 43 43 42 40
71 49 47 36 49 49 45 47 52 48 56 56 58 58 61 65 66 67 69 76 80 77 72 63 60 58 58 57 57 57 56 50 48 45 43 41 40 41 42 41 37 39 40 39
64 59 44 48 54 54 51 41 51 54 62 67 70 65 63 64 64 68 74 80 79 71 64 63 60 58 52 46 43 40 39 33 27 27 27 26 26 27 27 29 29 29 29 30
78 59 50 36 42 42 40 46 58 58 64 70 68 64 68 66 76 83 80 75 72 67 66 62 60 47 34 28 24 22 24 27 29 30 29 28 28 27 27 29 28 29 30 31
79 81 58 43 42 42 41 40 60 61 66 73 63 58 60 80 86 81 76 72 70 67 63 57 40 31 26 27 25 25 27 29 29 30 32 32 35 35 36 32 33 32 33 31
81 78 65 47 45 50 47 59 59 60 66 69 69 81 86 87 89 82 75 73 66 62 49 42 35 29 24 24 22 26 28 30 31 31 33 35 37 37 39 41 43 42 47 41
59 58 54 50 52 50 53 56 56 59 63 63 74 83 88 88 85 80 73 68 64 58 44 31 25 24 25 22 27 31 33 33 34 35 35 34 37 42 46 49 50 53 59 58
56 54 56 52 56 52 51 52 59 58 65 69 70 79 83 79 83 81 74 68 61 60 49 34 28 28 29 29 32 36 35 34 38 41 38 38 40 44 48 53 57 60 63 66
61 59 60 58 56 59 61 62 64 67 68 70 71 77 75 78 82 78 74 70 59 52 46 32 29 31 29 30 34 36 38 40 44 44 44 45 46 48 53 49 56 60 71 80
64 58 57 61 60 59 60 60 67 68 70 68 66 72 72 79 77 75 72 59 48 42 42 37 38 34 33 35 39 40 44 50 51 55 56 61 62 56 49 65 60 73 75 77
66 68 70 71 66 65 66 66 68 70 67 73 73 74 74 76 68 66 58 52 49 44 40 38 39 41 38 41 40 41 49 52 57 63 64 65 67 72 73 54 66 61 70 68
70 73 86 67 70 70 71 73 73 76 75 74 65 60 58 55 49 44 39 36 40 43 43 43 43 42 35 40 46 51 56 58 71 69 68 69 73 76 75 74 72 69 65 55
70 66 68 70 76 80 75 72 75 71 60 52 48 48 47 49 49 46 43 43 43 43 38 38 44 47 47 52 59 63 69 72 72 72 74 76 79 82 82 82 82 81 80 81
66 74 73 74 74 74 74 72 68 58 55 57 56 51 50 51 48 44 40 43 53 57 53 57 62 55 56 60 62 65 71 75 74 75 76 77 79 81 81 82 84 84 85 85
78 86 81 78 78 76 69 61 61 62 57 50 49 49 49 51 54 55 54 56 62 66 66 68 66 60 61 64 66 69 75 75 76 76 78 78 80 79 80 82 85 86 88 87
64 68 62 63 63 67 62 55 48 46 49 49 48 51 55 60 67 66 65 64 69 71 72 66 65 66 71 74 76 80 83 84 85 86 87 88 88 87 90 91 92 94 93 94
66 70 65 62 54 51 49 46 45 46 46 48 53 58 62 66 67 68 68 72 78 78 72 71 75 81 81 83 84 86 87 88 88 89 91 94 97 97 96 97 97 98 97 95
58 51 47 46 42 39 43 44 46 50 52 55 61 67 71 72 72 76 79 83 82 80 78 80 83 85 86 88 85 84 87 91 94 98 99 98 98 98 98 97 97 98 99 98
48 45 46 46 45 43 44 47 54 58 58 62 70 75 77 78 80 83 89 86 80 82 79 84 89 99 92 82 89 99 98 97 98 99 99 97 97 93 98 98 98 98 98 98
49 50 53 55 56 57 57 59 61 63 67 70 73 77 83 88 86 87 87 88 85 82 89 87 84 85 83 82 95 95 92 93 97 94 96 94 97 96 94 96 98 98 98 98
53 57 60 62 63 65 64 62 68 72 75 76 81 84 89 91 92 98 89 82 84 86 82 87 87 82 88 97 98 95 97 97 97 98 98 99 99 98 98 98 98 98 98 98
62 64 69 70 65 66 74 71 72 74 78 81 85 88 87 94 94 83 82 90 89 88 86 89 88 85 84 94 97 100 100 100 100 100 100 97 100 99 99 98 100 100 100 97
69 71 67 69 74 78 76 76 80 84 89 90 85 83 85 80 86 89 92 90 92 90 93 91 93 95 96 100 100 100 100 100 98 98 98 99 98 97 97 97 98 100 99 100
69 72 75 76 76 76 80 86 95 92 90 88 89 88 87 89 90 90 89 91 93 94 93 96 100 96 94 100 99 98 98 97 97 96 98 95 96 96 96 96 97 98 98 96
76 80 81 75 76 80 89 95 93 91 92 95 94 93 91 88 88 89 93 94 98 98 96 100 100 99 99 98 96 97 96 96 96 99 98 97 96 97 97 97 96 97 96 96

GFSNGP_925_rhum_195.txt.gz
RH
38 30 29 32 29 29 43 35 28 18 22 20 34 39 42 43 45 46 44 39 36 35 37 41 43 45 46 46 46 47 50 51 52 53 53 53 54 52 51 51 47 42 37 34
35 33 38 42 35 32 29 31 27 26 25 20 30 34 43 44 45 45 42 39 36 37 38 39 41 42 45 47 48 49 50 52 53 53 52 50 44 38 35 35 33 32 30 28
41 35 36 36 30 31 32 28 27 26 22 27 40 43 43 45 43 42 40 40 40 39 40 42 44 46 46 49 50 50 52 54 51 44 35 32 30 27 27 28 28 29 29 29
54 43 50 36 38 36 34 28 26 30 28 29 36 38 40 38 38 40 40 40 40 43 46 48 48 48 49 50 52 55 50 42 34 29 28 28 30 31 31 31 31 32 32 32
51 42 31 29 38 37 36 31 27 29 30 29 35 39 43 36 34 37 39 41 43 46 48 48 46 48 48 47 44 38 30 27 29 31 32 32 32 32 34 36 36 37 38 36
49 56 50 30 36 33 33 36 33 28 32 38 43 47 41 39 34 38 42 46 50 50 47 46 48 47 41 31 24 21 26 28 32 34 36 36 37 38 37 38 37 35 35 35
48 50 35 31 36 34 39 36 38 32 33 40 43 42 37 40 41 45 52 55 53 50 48 47 48 39 27 23 22 23 30 34 36 38 38 36 34 35 37 38 35 34 34 34
47 53 58 32 42 38 34 45 38 37 36 40 48 47 43 45 49 56 60 59 56 54 52 53 44 34 25 24 25 31 33 35 35 34 32 30 34 40 44 42 38 35 32 31
39 40 36 34 36 38 36 41 44 42 44 45 54 51 50 56 59 62 62 60 58 55 53 47 41 34 26 25 25 29 30 32 32 31 31 32 33 36 40 39 36 34 32 32
43 40 40 34 41 40 39 40 44 43 46 50 55 57 61 61 63 61 60 59 58 57 51 41 34 32 31 28 30 32 35 36 35 34 34 34 34 32 35 37 35 33 33 34
44 49 48 40 42 42 44 44 46 46 47 48 54 59 60 63 64 62 62 64 63 60 55 46 34 33 32 34 36 37 39 39 36 33 31 30 32 34 37 39 40 44 47 51
38 39 36 41 43 45 50 51 50 54 55 53 53 59 58 59 60 62 64 66 64 58 51 41 35 36 37 36 36 38 38 37 36 38 39 40 42 44 44 46 49 54 58 66
41 37 41 40 41 44 48 51 49 52 55 59 56 58 57 62 62 66 59 52 47 44 42 40 38 36 35 36 41 46 48 49 49 51 51 52 53 54 55 55 54 56 59 63
51 55 62 56 59 49 56 57 57 57 59 61 62 60 57 54 50 41 39 42 42 41 39 38 39 42 45 48 51 55 57 58 59 59 59 61 61 62 64 65 65 66 65 65
56 59 56 56 61 63 60 62 64 61 55 51 45 41 39 38 37 37 39 43 45 45 42 43 48 50 51 55 60 63 63 63 63 65 69 69 70 70 70 71 73 73 70 68
63 64 66 68 67 68 65 61 57 52 44 43 40 39 40 41 41 41 44 46 48 48 53 55 57 57 61 66 68 67 65 66 68 70 73 75 72 71 70 70 71 73 74 74
76 79 74 74 72 69 64 54 48 46 40 36 40 43 42 43 42 41 45 50 53 56 58 60 60 64 71 69 69 71 75 75 71 74 71 71 72 74 76 77 78 77 80 79
59 64 62 62 64 59 50 45 42 35 35 39 43 42 42 43 44 48 52 54 56 55 56 59 67 76 76 73 73 78 80 78 74 71 72 74 73 73 80 82 84 78 76 78
57 58 56 55 50 47 41 37 35 39 41 44 42 44 49 53 55 56 57 58 58 58 59 70 73 75 72 70 73 76 74 72 76 79 77 74 75 76 81 86 93 80 79 85
61 57 53 47 42 38 38 37 40 44 48 49 52 52 52 54 58 61 64 63 62 62 70 72 76 73 71 72 74 78 82 87 83 81 80 78 80 78 83 82 76 80 86 87
55 50 47 43 41 41 43 46 48 51 55 58 57 56 58 62 65 67 65 61 60 68 75 77 75 76 75 77 82 86 84 83 83 84 89 88 85 83 86 84 86 87 90 93
42 42 44 42 42 46 50 53 55 58 61 64 65 65 66 65 65 67 67 68 68 72 78 79 78 79 82 80 89 90 87 89 88 94 94 91 90 91 89 89 93 94 97 92
50 49 48 49 51 57 61 62 63 62 62 66 70 71 70 71 71 70 68 67 74 78 86 84 82 84 84 92 96 91 93 95 96 95 95 94 93 97 96 97 90 90 91 92
56 58 60 61 60 59 63 67 66 70 74 77 75 77 75 68 66 68 70 74 80 83 86 88 86 85 85 93 93 94 95 96 95 96 94 90 94 94 96 94 95 95 96 94
70 71 69 65 61 64 72 76 76 77 74 70 71 69 74 74 77 76 80 83 84 87 86 85 86 87 88 85 89 92 93 95 94 97 96 94 96 96 96 97 95 96 99 100
58 61 64 61 63 65 69 71 69 73 70 67 68 71 76 80 82 83 83 85 86 87 89 89 89 88 90 89 91 91 95 92 91 92 93 97 98 99 100 100 100 100 100 100
75 71 71 68 70 73 78 80 73 71 75 77 76 76 80 82 82 82 84 85 88 89 90 91 91 91 92 92 92 94 94 95 95 94 97 100 100 100 100 100 100 100 100 100

GFSNGP_925_rhum_198.txt.gz
RH
50 44 41 42 41 39 50 48 44 28 26 24 48 52 54 57 62 59 59 54 49 49 51 51 52 53 51 48 47 48 50 51 52 53 54 54 53 50 47 42 38 36 32 29
49 39 39 48 45 43 42 39 41 38 35 25 39 47 56 58 58 57 52 47 46 49 50 50 48 47 47 47 48 50 52 53 53 53 53 49 39 31 29 29 27 26 25 26
62 38 46 52 39 44 41 34 33 44 29 41 44 51 57 59 56 53 50 47 48 49 47 44 45 46 47 49 50 51 52 54 54 48 38 29 25 25 26 27 28 28 28 29
80 51 63 40 38 36 40 38 34 31 29 42 45 49 51 50 54 52 48 48 50 49 47 46 47 48 50 50 50 52 54 50 39 28 26 27 28 29 31 31 32 33 34 34
74 65 46 38 46 46 46 37 36 33 32 34 48 50 50 47 45 49 50 49 48 47 49 48 49 49 50 52 55 52 43 33 27 28 29 30 31 32 33 35 35 34 32 34
62 72 66 33 38 35 35 44 35 35 38 51 53 70 67 47 46 48 46 46 49 49 49 46 48 48 47 45 41 34 28 26 28 30 32 33 34 33 30 30 32 35 37 35
70 73 53 33 42 38 43 41 39 35 39 49 53 51 48 47 47 47 52 52 50 48 46 47 48 45 38 30 24 22 26 28 31 32 32 30 30 29 30 32 36 39 39 39
66 72 68 40 43 42 41 42 41 38 42 48 53 50 46 50 55 61 62 57 50 49 50 49 46 36 27 24 23 24 27 30 31 30 31 31 31 30 31 34 40 44 43 39
50 53 40 37 38 36 44 50 46 45 44 55 58 55 54 59 65 66 64 59 55 55 55 52 42 35 28 26 26 28 30 30 31 32 32 32 33 33 34 35 37 41 41 38
43 46 44 39 43 42 41 48 48 49 57 57 59 59 62 66 70 68 65 62 57 55 51 46 40 35 30 28 28 30 32 34 35 37 37 37 36 34 32 32 34 39 40 40
52 53 49 42 46 47 48 51 52 53 56 61 64 70 71 72 71 66 64 61 59 58 54 46 35 31 31 32 35 36 37 38 39 39 36 34 35 36 38 39 40 45 49 53
51 47 46 42 47 50 54 57 55 54 61 65 67 71 70 73 67 68 70 66 64 59 53 42 36 36 37 36 36 36 38 40 43 47 48 49 51 53 53 53 54 56 58 61
44 42 44 44 46 52 55 59 59 62 67 72 70 68 66 68 68 68 67 58 50 44 43 39 38 36 36 38 42 48 52 54 56 60 61 62 63 65 69 68 68 68 68 67
53 56 60 55 63 54 56 60 61 63 65 66 66 64 65 67 57 48 44 42 40 38 37 38 40 43 46 50 53 58 61 64 65 64 64 66 70 74 77 74 72 73 74 72
57 60 57 60 56 63 66 66 72 70 65 60 53 50 45 44 45 43 40 39 39 40 43 46 50 53 55 58 62 65 67 67 67 68 71 72 74 76 76 75 75 74 74 74
61 65 66 61 72 74 73 69 67 60 50 45 44 43 42 40 40 42 44 45 46 53 54 57 59 61 62 66 70 70 71 73 73 72 75 77 75 74 75 76 77 80 80 80
80 84 80 80 79 74 69 60 53 50 45 45 47 44 42 42 44 46 48 52 53 55 56 56 60 64 70 72 74 74 76 80 78 76 73 74 75 77 79 80 79 81 84 85
52 66 67 69 74 69 58 51 45 41 45 46 44 43 44 45 51 52 54 55 55 56 56 61 65 72 76 74 72 73 77 76 75 74 76 82 82 80 79 81 83 89 96 90
64 70 69 69 62 53 48 40 41 44 44 44 44 49 49 52 55 57 58 59 60 61 65 66 72 76 75 73 74 74 76 79 81 89 89 82 84 87 87 87 86 89 86 86
70 66 60 52 45 41 42 42 44 47 47 46 49 53 56 57 58 61 64 66 64 63 67 72 77 76 75 75 77 77 83 87 91 90 86 85 87 90 90 88 88 91 90 93
59 52 48 46 45 43 45 49 51 55 53 51 54 57 58 61 64 67 68 69 64 66 73 78 78 79 78 81 84 86 89 94 95 91 92 93 96 96 96 95 95 95 96 97
80 67 49 45 48 52 53 55 56 59 60 61 61 63 66 67 66 67 68 68 68 72 77 80 83 84 83 82 90 93 95 94 86 89 94 96 99 98 97 98 99 97 94 93
55 49 48 52 63 63 61 60 59 60 62 65 69 70 70 71 71 72 77 69 72 76 83 85 88 86 83 90 94 91 86 90 93 93 96 100 100 100 98 98 98 96 95 98
77 79 77 72 72 69 71 67 65 68 70 70 72 73 72 70 68 68 70 75 80 85 86 88 87 85 83 94 86 85 88 89 88 91 88 92 96 92 97 99 100 98 95 91
83 77 72 70 71 75 77 72 75 74 71 72 70 70 72 74 76 75 80 82 84 87 87 89 89 89 89 89 90 89 90 87 91 97 97 92 94 100 99 99 95 94 99 100
66 68 68 68 70 72 71 69 76 72 69 69 70 73 75 79 81 82 82 85 86 87 87 87 90 90 90 88 88 88 90 91 91 92 96 97 99 98 98 95 100 100 100 100
70 68 71 74 78 79 79 74 73 76 78 79 80 78 81 82 80 81 83 85 88 91 92 91 92 93 90 89 92 90 92 95 96 98 98 98 100 100 100 100 100 100 98 98

GFSNGP_925_rhum_204.txt.gz
RH
56 50 52 51 48 44 59 43 50 33 49 36 34 50 61 90 93 93 93 92 86 86 80 73 72 71 74 74 63 56 52 52 53 52 54 55 55 51 46 37 27 24 21 19
68 50 55 58 46 47 48 44 45 42 42 29 33 47 70 88 92 92 92 89 79 75 70 66 64 62 62 63 60 52 54 55 56 57 56 54 50 42 28 22 21 20 20 18
61 47 58 56 41 39 49 50 41 49 34 33 46 55 65 88 87 87 85 73 71 70 65 63 62 61 62 60 55 54 56 57 57 55 53 48 33 23 20 20 20 19 20 20
74 53 65 35 35 38 44 43 45 40 37 36 41 50 64 73 79 81 68 67 72 72 65 63 60 58 56 54 55 55 55 56 55 52 40 25 21 21 22 21 21 22 22 24
69 77 46 38 32 42 45 38 35 39 36 43 58 56 59 72 66 63 59 62 65 66 64 60 57 55 56 57 56 56 56 54 50 39 24 23 24 24 24 25 25 26 27 27
79 82 74 39 34 37 32 44 29 39 40 57 60 69 61 66 60 56 56 59 63 61 60 57 56 54 56 58 57 57 54 47 34 24 24 25 24 25 27 27 28 30 30 32
72 68 65 46 39 36 48 41 36 40 39 59 55 46 48 60 56 53 55 60 61 60 60 58 56 55 59 59 57 53 46 30 25 26 26 25 25 27 29 31 33 34 37 36
82 77 81 39 42 44 36 38 36 40 48 52 54 59 62 57 59 60 64 62 58 60 62 59 56 54 58 56 51 41 30 27 28 28 27 28 29 32 34 36 37 38 40 42
61 67 44 43 39 38 40 42 38 40 48 54 60 62 63 63 62 63 61 60 58 59 60 56 53 50 48 39 32 28 28 29 27 28 29 33 38 39 37 41 47 50 52 57
96 70 56 50 48 48 44 43 40 42 54 55 61 63 63 65 67 65 62 61 58 56 52 47 44 39 32 26 25 26 27 28 30 33 40 42 40 46 49 52 58 62 68 72
60 53 60 62 48 44 58 48 50 52 56 60 64 68 68 71 66 64 64 62 56 53 48 40 31 28 27 27 27 30 32 36 40 41 40 44 49 54 60 64 71 72 73 74
56 33 39 47 40 63 64 55 50 62 63 63 62 73 70 71 67 66 68 65 61 56 48 39 32 37 39 31 31 33 39 41 43 46 52 57 60 62 64 66 76 77 74 71
49 41 43 48 71 61 64 60 61 65 62 68 70 72 71 76 70 68 68 63 56 51 44 56 70 60 38 37 37 38 40 49 54 58 60 64 69 72 75 72 68 72 74 75
40 47 67 54 49 55 60 63 66 75 76 74 78 74 72 74 75 71 70 69 65 73 75 77 47 43 44 43 44 48 54 59 59 64 69 73 74 77 79 76 79 77 70 82
40 37 40 40 37 52 75 76 79 84 83 84 76 78 78 77 74 72 76 79 86 92 75 45 47 54 54 54 54 56 59 63 70 75 76 79 80 70 70 75 80 83 83 80
42 42 42 44 45 51 82 78 84 86 84 82 77 72 68 65 68 69 73 82 56 53 50 49 53 59 60 58 60 63 68 79 81 78 79 73 71 76 80 84 89 92 94 88
47 49 48 49 49 68 78 72 72 77 73 69 63 62 64 61 57 53 51 44 43 49 51 52 59 62 63 64 64 72 74 72 77 73 70 76 80 85 88 92 85 84 87 85
42 40 39 41 44 61 76 77 77 69 62 57 58 60 56 49 51 57 58 53 55 58 56 57 63 67 68 67 72 73 74 73 73 77 80 84 88 94 94 86 86 90 89 87
45 45 42 43 44 67 78 70 62 62 64 65 75 54 49 54 58 62 56 56 61 71 72 69 75 72 68 69 76 75 75 75 81 85 87 94 91 87 92 90 93 95 96 100
50 49 47 47 68 73 68 63 69 83 86 70 60 61 67 64 61 60 56 63 62 63 69 73 70 67 69 70 78 78 79 86 90 90 92 95 88 85 89 92 97 97 99 99
74 58 57 79 74 61 60 70 88 94 97 95 66 78 80 72 60 66 71 72 72 74 69 72 66 70 73 73 78 85 93 95 94 89 92 94 92 92 92 93 94 100 98 96
87 88 75 78 89 95 97 98 97 96 84 74 78 74 73 76 69 67 63 69 73 78 71 69 72 73 77 87 96 96 96 93 83 87 90 90 90 92 94 95 100 100 100 100
93 91 92 90 90 95 97 97 94 87 82 79 80 78 74 72 70 77 83 74 72 74 76 81 81 92 89 90 95 97 93 86 89 89 87 85 88 95 98 99 100 100 100 100
94 93 94 96 95 89 91 96 94 92 89 85 78 73 72 75 75 72 78 81 82 82 88 88 89 92 87 96 94 88 87 87 86 85 86 94 98 98 91 92 94 100 100 98
94 94 90 88 88 92 94 96 94 93 90 86 79 72 68 68 69 78 76 78 84 89 87 86 93 94 93 89 92 89 86 85 86 94 99 96 90 89 93 100 100 100 97 98
90 91 94 94 94 93 93 88 86 86 85 83 81 80 81 82 83 81 83 86 83 88 85 85 86 94 96 91 91 90 87 86 89 90 92 92 92 95 99 96 95 95 96 100
86 86 87 88 89 86 83 81 82 85 79 82 89 88 85 82 88 83 88 86 86 87 88 88 88 90 95 96 97 95 90 91 96 97 96 99 97 95 94 96 97 96 95 95